Powrót do katalogu

DELTA 1 DEB

AktywnySSO
NORAD 3417·DEBRIS·🇺🇸 United States

Wystrzelony Aug 16, 1968 z Vandenberg Space Force Base

Loading…

Następne Przeloty (najbliższe 24 godziny)

TLE

ŚwieżeSource: Space-Track

Epoka: Sep 14, 2026, 08:23 UTC

1 03417U 68069D   26257.34959126 -.00000040  00000-0  47442-4 0  9995
2 03417 102.1915 201.8984 0065769 252.4678 262.1369 12.39784191933880

Śledź DELTA 1 DEB w czasie rzeczywistym z AllMySat

Download on the App Store